Location: Hermaringen
(48.5952°N, 10.2585°E)
Time: 20:48:43
(UTC+00:00)

S-56A Canister/Altair - Pass Details

Date: 18 February 2026
Orbit: 633 x 2484 km, 38.9° (Epoch: 13 March)

Event Time Altitude Azimuth Distance (km) Brightness Sun altitude
Exits shadow 04:52:29 15° 246° (WSW) 3,552 10.3 -15.4°
Maximum altitude 04:57:44 22° 212° (SSW) 3,445 10.5 -14.5°
Drops below altitude 10° 05:06:47 10° 169° (SSE) 4,833 11.8 -13.0°
Sets 05:12:08 0° 156° (SSE) 6,025 12.5 -12.1°
